SCP
0 0 0 0 0 0 0 0 0 0 0 0 0 0 0 0 0 0 0 0 0 0
0 0 0 0 0 0 0 0 0 0 0 0 0 0 0 0 0 0 0 0 0 -0
0 0 0 0 0 0 0 0 0 0 0 0 0 0 0 0 0 0 0 0 0 0
0 0 0 0 0 0 0 0 0 0 0 0 0 0 0 0 0 0 0 0 0 -0
0 0 0 0 0 0 0 0 0 0 0 0 0 0 0 0 0 0 0 0 0 0
0 0 0 0 0 0 0 0 0 0 0 0 0 0 0 0 0 0 0 0 0 0
0 0 0 0 0 0 0 0 0 0 0 0 0 0 0 0 0 0 0 0 0 0
0 0 0 0 0 0 0 0 0 0 0 0 0 0 0 0 0 0 0 0 0 0
0 0 0 0 0 0 0 0 0 0 0 0 0 0 0 0 0 0 0 0 0 0
0 0 0 0 0 0 0 0 0 0 0 0 0 0 0 0 0 0 0 0 0 0
0 0 0 0 0 0 0 0 0 0 0 0 0 0 0 0 0 0 0 0 0 0
0 0 0 0 0 0 0 0 0 0 0 0 0 0 0 0 0 0 0 0 0 0
0 0 0 0 0 0 0 0 0 0 0 0 0 0 0 0 0 0 0 0 0 0
0 0 0 0 0 0 0 0 0 0 0 0 0 0 0 0 0 0 0 0 0 0
Wind_Speed_500mb
18 22 25 30 39 30 34 39 47 51 47 49 53 53 52 50 43 38 40 40 32 30
20 20 27 35 24 31 37 42 48 46 45 50 52 53 51 45 44 37 30 27 28 32
24 27 29 20 26 34 39 43 47 41 43 47 46 50 45 42 38 33 22 20 26 27
29 29 17 21 28 35 40 43 41 40 42 41 39 41 39 34 34 28 23 23 25 25
31 22 20 24 30 34 41 39 37 37 37 38 38 40 42 37 33 32 26 24 27 27
30 22 23 27 29 32 39 36 31 34 37 39 40 39 40 41 40 31 32 30 29 29
33 28 28 29 30 33 38 35 32 33 37 39 42 42 42 41 42 38 34 30 24 22
34 32 34 31 34 35 38 37 36 34 35 40 42 40 46 46 44 38 28 18 20 18
34 34 35 36 39 39 38 40 38 35 36 38 42 44 47 49 43 33 23 15 12 14
35 37 36 38 42 42 41 43 42 41 38 41 43 46 52 47 37 24 16 15 16 14
37 38 36 39 40 43 42 44 46 44 42 42 44 47 53 41 26 20 16 14 14 12
51 53 52 50 46 45 48 47 47 48 45 44 45 48 52 32 15 16 8 8 10 13
45 57 60 55 58 57 54 52 48 50 47 44 46 47 49 20 14 10 7 12 13 15
54 49 58 54 55 50 57 55 55 51 49 45 43 42 43 20 17 17 12 11 14 15
Wind_Direction_500mb
332 319 313 315 315 321 327 332 334 334 335 338 340 338 334 330 324 313 307 291 289 282
306 309 311 314 325 330 330 331 331 335 338 339 338 339 337 337 331 327 320 305 294 288
300 309 313 318 328 331 329 325 330 334 340 340 346 341 341 339 328 330 337 314 308 308
302 307 298 317 327 331 331 325 329 331 336 339 340 342 346 348 336 325 327 314 310 303
307 295 296 312 320 324 329 327 329 333 339 342 337 332 332 334 334 334 324 310 299 294
303 287 302 308 316 317 327 329 332 334 339 339 337 338 336 329 331 323 318 313 302 299
304 286 299 302 312 315 324 329 324 332 335 337 336 335 332 328 326 323 319 317 314 311
305 290 292 297 304 311 321 323 321 324 329 333 334 332 327 326 324 323 322 321 321 321
298 303 290 299 301 303 311 318 320 317 320 327 332 334 325 323 319 319 314 313 327 320
299 300 304 297 299 304 303 310 314 316 311 318 327 328 327 322 317 310 310 297 296 302
298 301 306 301 300 300 304 302 311 310 310 312 325 325 326 319 309 299 304 298 290 280
306 302 299 298 303 304 301 301 304 308 310 308 320 326 327 317 293 301 317 331 312 293
301 301 299 297 300 301 300 299 299 306 308 307 314 322 326 308 292 282 295 328 321 314
292 300 306 297 293 301 302 297 298 299 307 307 310 315 322 295 283 272 268 297 313 300
Wind_Speed_850mb
18 22 25 30 39 30 34 39 47 51 47 49 53 53 52 50 43 38 40 40 32 30
20 20 27 35 24 31 37 42 48 46 45 50 52 53 51 45 44 37 30 27 28 32
24 27 29 20 26 34 39 43 47 41 43 47 46 50 45 42 38 33 22 20 26 27
29 29 17 21 28 35 40 43 41 40 42 41 39 41 39 34 34 28 23 23 25 25
31 22 20 24 30 34 41 39 37 37 37 38 38 40 42 37 33 32 26 24 27 27
30 22 23 27 29 32 39 36 31 34 37 39 40 39 40 41 40 31 32 30 29 29
33 28 28 29 30 33 38 35 32 33 37 39 42 42 42 41 42 38 34 30 24 22
34 32 34 31 34 35 38 37 36 34 35 40 42 40 46 46 44 38 28 18 20 18
34 34 35 36 39 39 38 40 38 35 36 38 42 44 47 49 43 33 23 15 12 14
35 37 36 38 42 42 41 43 42 41 38 41 43 46 52 47 37 24 16 15 16 14
37 38 36 39 40 43 42 44 46 44 42 42 44 47 53 41 26 20 16 14 14 12
51 53 52 50 46 45 48 47 47 48 45 44 45 48 52 32 15 16 8 8 10 13
45 57 60 55 58 57 54 52 48 50 47 44 46 47 49 20 14 10 7 12 13 15
54 49 58 54 55 50 57 55 55 51 49 45 43 42 43 20 17 17 12 11 14 15
Wind_Direction_850mb
332 319 313 315 315 321 327 332 334 334 335 338 340 338 334 330 324 313 307 291 289 282
306 309 311 314 325 330 330 331 331 335 338 339 338 339 337 337 331 327 320 305 294 288
300 309 313 318 328 331 329 325 330 334 340 340 346 341 341 339 328 330 337 314 308 308
302 307 298 317 327 331 331 325 329 331 336 339 340 342 346 348 336 325 327 314 310 303
307 295 296 312 320 324 329 327 329 333 339 342 337 332 332 334 334 334 324 310 299 294
303 287 302 308 316 317 327 329 332 334 339 339 337 338 336 329 331 323 318 313 302 299
304 286 299 302 312 315 324 329 324 332 335 337 336 335 332 328 326 323 319 317 314 311
305 290 292 297 304 311 321 323 321 324 329 333 334 332 327 326 324 323 322 321 321 321
298 303 290 299 301 303 311 318 320 317 320 327 332 334 325 323 319 319 314 313 327 320
299 300 304 297 299 304 303 310 314 316 311 318 327 328 327 322 317 310 310 297 296 302
298 301 306 301 300 300 304 302 311 310 310 312 325 325 326 319 309 299 304 298 290 280
306 302 299 298 303 304 301 301 304 308 310 308 320 326 327 317 293 301 317 331 312 293
301 301 299 297 300 301 300 299 299 306 308 307 314 322 326 308 292 282 295 328 321 314
292 300 306 297 293 301 302 297 298 299 307 307 310 315 322 295 283 272 268 297 313 300